TimeCDT,TemperatureF,Dew PointF,Humidity,Sea Level PressureIn,VisibilityMPH,Wind Direction,Wind SpeedMPH,Gust SpeedMPH,PrecipitationIn,Events,Conditions,WindDirDegrees,DateUTC
12:56 AM,59.9,57.9,93,29.86,9.0,SE,4.6,-,0.00,Rain,Light Rain,140,2012-10-01 05:56:00
1:56 AM,59.9,55.9,87,29.83,8.0,SE,9.2,-,0.00,Rain,Light Rain,140,2012-10-01 06:56:00
4:22 AM,55.4,55.4,100,29.80,1.8,ESE,9.2,-,0.06,Rain,Light Rain,110,2012-10-01 09:22:00
4:30 AM,55.4,55.4,100,29.80,2.5,ESE,8.1,-,0.07,Rain,Light Rain,110,2012-10-01 09:30:00
4:46 AM,55.4,55.4,100,29.79,3.0,East,3.5,-,0.10,Rain,Light Rain,90,2012-10-01 09:46:00
4:56 AM,56.8,55.9,97,29.79,4.0,Calm,Calm,-,0.11,Rain,Light Rain,0,2012-10-01 09:56:00
5:14 AM,57.2,55.4,94,29.80,6.0,Calm,Calm,-,0.02,Rain,Light Rain,0,2012-10-01 10:14:00
5:38 AM,55.4,55.4,100,29.80,3.0,Calm,Calm,-,0.05,Rain,Rain,0,2012-10-01 10:38:00
5:56 AM,55.9,55.9,100,29.80,2.0,East,4.6,-,0.10,Rain,Heavy Rain,80,2012-10-01 10:56:00
5:58 AM,55.4,55.4,100,29.79,1.8,East,4.6,-,0.01,Rain,Heavy Rain,80,2012-10-01 10:58:00
6:07 AM,55.4,55.4,100,29.79,1.8,Calm,Calm,-,0.04,Rain,Heavy Rain,0,2012-10-01 11:07:00
6:27 AM,55.4,55.4,100,29.79,1.2,East,4.6,-,0.14,Rain,Heavy Rain,80,2012-10-01 11:27:00
6:39 AM,55.4,55.4,100,29.78,0.8,East,4.6,-,0.25,Rain,Heavy Rain,80,2012-10-01 11:39:00
6:47 AM,55.4,55.4,100,29.78,0.2,East,5.8,-,0.35,Fog-Rain,Heavy Rain,80,2012-10-01 11:47:00
7:03 AM,55.4,55.4,100,29.77,0.8,North,-9999.0,-,0.02,Rain,Rain,0,2012-10-01 12:03:00
7:06 AM,55.4,55.4,100,29.77,1.0,North,-9999.0,-,0.02,Rain,Rain,0,2012-10-01 12:06:00
7:10 AM,55.4,55.4,100,29.77,1.5,North,-9999.0,-,0.03,Rain,Light Rain,0,2012-10-01 12:10:00
7:16 AM,55.4,55.4,100,29.78,2.0,North,-9999.0,-,0.03,Rain,Light Rain,0,2012-10-01 12:16:00
7:25 AM,55.4,55.4,100,29.78,1.2,North,-9999.0,-,0.04,Rain,Light Rain,0,2012-10-01 12:25:00
7:28 AM,55.4,55.4,100,29.78,0.8,North,-9999.0,-,0.06,Rain,Heavy Rain,0,2012-10-01 12:28:00
7:32 AM,55.4,55.4,100,29.78,0.8,North,-9999.0,-,0.08,Rain,Heavy Rain,0,2012-10-01 12:32:00
7:40 AM,55.4,55.4,100,29.78,0.8,North,-9999.0,-,0.12,Rain,Heavy Rain,0,2012-10-01 12:40:00
7:56 AM,55.9,55.9,100,29.79,0.5,North,-9999.0,-,0.26,Fog-Rain,Heavy Rain,0,2012-10-01 12:56:00
8:10 AM,57.2,57.2,100,29.77,0.8,North,-9999.0,-,0.06,Rain,Heavy Rain,0,2012-10-01 13:10:00
8:24 AM,57.2,57.2,100,29.77,1.0,North,-9999.0,-,0.11,Rain,Light Rain,0,2012-10-01 13:24:00
8:35 AM,57.2,57.2,100,29.77,2.0,North,-9999.0,-,0.12,Rain,Rain,0,2012-10-01 13:35:00
8:43 AM,57.2,57.2,100,29.78,1.2,North,-9999.0,-,0.15,Rain,Heavy Rain,0,2012-10-01 13:43:00
9:05 AM,57.2,57.2,100,29.77,4.0,North,-9999.0,-,0.00,Rain,Light Rain,0,2012-10-01 14:05:00
9:12 AM,57.2,57.2,100,29.77,1.8,North,-9999.0,-,0.02,Rain,Rain,0,2012-10-01 14:12:00
9:19 AM,57.2,57.2,100,29.78,1.5,North,-9999.0,-,0.04,Rain,Rain,0,2012-10-01 14:19:00
9:30 AM,57.2,57.2,100,29.77,2.5,North,-9999.0,-,0.05,Rain,Light Rain,0,2012-10-01 14:30:00
9:37 AM,57.2,57.2,100,29.77,3.0,North,-9999.0,-,0.06,Rain,Rain,0,2012-10-01 14:37:00
9:45 AM,57.2,57.2,100,29.76,2.5,North,-9999.0,-,0.07,Rain,Light Rain,0,2012-10-01 14:45:00
9:56 AM,57.9,57.9,100,29.77,1.8,North,-9999.0,-,0.10,Rain,Rain,0,2012-10-01 14:56:00
10:01 AM,57.2,57.2,100,29.76,2.0,North,-9999.0,-,0.00,Rain,Light Rain,0,2012-10-01 15:01:00
10:10 AM,57.2,57.2,100,29.76,4.0,North,-9999.0,-,0.00,Rain,Light Rain,0,2012-10-01 15:10:00
10:22 AM,59.0,59.0,100,29.75,2.5,North,-9999.0,-,0.01,Rain,Rain,0,2012-10-01 15:22:00
10:32 AM,59.0,59.0,100,29.74,3.0,North,-9999.0,-,0.01,Rain,Light Rain,0,2012-10-01 15:32:00
10:49 AM,59.0,59.0,100,29.74,6.0,North,-9999.0,-,0.02,Rain,Light Rain,0,2012-10-01 15:49:00
10:56 AM,59.0,59.0,100,29.75,6.0,North,-9999.0,-,0.02,Rain,Light Rain,0,2012-10-01 15:56:00
11:56 AM,61.0,61.0,100,29.74,7.0,North,-9999.0,-,0.00,Rain,Light Rain,0,2012-10-01 16:56:00
12:14 PM,60.8,60.8,100,29.72,1.8,North,-9999.0,-,0.02,Rain,Rain,0,2012-10-01 17:14:00
12:20 PM,60.8,60.8,100,29.71,1.0,North,-9999.0,-,0.04,Rain,Heavy Rain,0,2012-10-01 17:20:00
12:40 PM,60.8,60.8,100,29.70,1.5,North,-9999.0,-,0.08,Rain,Light Rain,0,2012-10-01 17:40:00
12:42 PM,62.6,62.6,100,29.69,3.0,North,-9999.0,-,0.08,Rain,Light Rain,0,2012-10-01 17:42:00
12:56 PM,61.9,61.9,100,29.70,10.0,North,-9999.0,-,0.08,,Overcast,0,2012-10-01 17:56:00
1:27 PM,62.6,62.6,100,29.68,1.8,East,6.9,-,0.03,Rain,Heavy Rain,90,2012-10-01 18:27:00
1:31 PM,62.6,62.6,100,29.68,1.0,North,-9999.0,-,0.04,Rain,Heavy Rain,0,2012-10-01 18:31:00
1:40 PM,62.6,62.6,100,29.67,1.5,North,-9999.0,-,0.06,Rain,Light Rain,0,2012-10-01 18:40:00
1:45 PM,62.6,62.6,100,29.66,3.0,North,-9999.0,-,0.06,Rain,Light Rain,0,2012-10-01 18:45:00
1:56 PM,63.9,63.9,100,29.66,10.0,East,8.1,-,0.06,Rain,Light Rain,90,2012-10-01 18:56:00
2:35 PM,64.4,64.4,100,29.65,1.8,East,10.4,-,0.02,Rain,Rain,90,2012-10-01 19:35:00
2:46 PM,64.4,64.4,100,29.65,3.0,East,8.1,-,0.02,Rain,Light Rain,90,2012-10-01 19:46:00
2:56 PM,63.9,63.9,100,29.65,1.2,East,11.5,-,0.05,Rain,Light Rain,90,2012-10-01 19:56:00
2:58 PM,64.4,64.4,100,29.64,1.0,East,10.4,-,0.01,Rain,Rain,90,2012-10-01 19:58:00
3:03 PM,64.4,64.4,100,29.64,1.5,East,5.8,-,0.01,Rain,Light Rain,100,2012-10-01 20:03:00
3:07 PM,64.4,64.4,100,29.65,3.0,Calm,Calm,-,0.01,Rain,Light Rain,0,2012-10-01 20:07:00
3:18 PM,64.4,64.4,100,29.65,10.0,East,5.8,-,0.01,,Overcast,100,2012-10-01 20:18:00
3:27 PM,64.4,64.4,100,29.64,8.0,East,6.9,-,0.01,Rain,Light Rain,90,2012-10-01 20:27:00
4:06 PM,66.2,64.4,94,29.63,10.0,East,9.2,-,N/A,,Mostly Cloudy,90,2012-10-01 21:06:00
4:56 PM,66.9,64.9,93,29.63,10.0,East,5.8,-,N/A,,Scattered Clouds,90,2012-10-01 21:56:00
5:56 PM,66.9,64.9,93,29.62,10.0,Variable,5.8,-,N/A,,Scattered Clouds,0,2012-10-01 22:56:00
6:56 PM,66.9,64.9,93,29.62,10.0,ESE,10.4,-,N/A,,Partly Cloudy,110,2012-10-01 23:56:00
7:56 PM,66.9,64.9,93,29.65,10.0,East,5.8,-,0.00,Rain,Light Rain,100,2012-10-02 00:56:00
8:09 PM,66.2,64.4,94,29.64,4.0,East,3.5,-,0.02,Rain,Light Rain,80,2012-10-02 01:09:00
8:15 PM,66.2,64.4,94,29.66,10.0,Calm,Calm,-,0.02,Rain-Thunderstorm,Light Thunderstorms and Rain,0,2012-10-02 01:15:00
8:46 PM,66.2,66.2,100,29.67,1.2,ENE,8.1,-,0.11,Rain,Heavy Rain,70,2012-10-02 01:46:00
8:49 PM,66.2,66.2,100,29.67,0.8,West,5.8,-,0.16,Rain,Heavy Rain,280,2012-10-02 01:49:00
8:56 PM,64.9,64.9,100,29.67,0.8,WNW,4.6,-,0.25,Rain,Heavy Rain,290,2012-10-02 01:56:00
9:02 PM,64.4,64.4,100,29.66,1.2,NNE,3.5,-,0.01,Rain,Rain,30,2012-10-02 02:02:00
9:06 PM,64.4,64.4,100,29.67,2.0,ENE,5.8,-,0.02,Rain,Light Rain,70,2012-10-02 02:06:00
9:17 PM,64.4,64.4,100,29.66,1.2,Calm,Calm,-,0.09,Rain,Heavy Rain,0,2012-10-02 02:17:00
9:27 PM,64.4,64.4,100,29.67,2.0,Calm,Calm,-,0.11,Rain,Rain,0,2012-10-02 02:27:00
9:30 PM,64.4,64.4,100,29.67,2.5,Calm,Calm,-,0.12,Rain-Thunderstorm,Thunderstorms and Rain,0,2012-10-02 02:30:00
9:37 PM,64.4,64.4,100,29.66,2.0,Calm,Calm,-,0.13,Rain-Thunderstorm,Thunderstorms and Rain,0,2012-10-02 02:37:00
9:44 PM,64.4,64.4,100,29.66,2.0,Calm,Calm,-,0.15,Rain-Thunderstorm,Thunderstorms and Rain,0,2012-10-02 02:44:00
9:56 PM,64.9,64.9,100,29.66,2.5,Calm,Calm,-,0.16,Rain,Rain,0,2012-10-02 02:56:00
10:03 PM,64.4,64.4,100,29.67,2.5,Calm,Calm,-,0.00,Rain-Thunderstorm,Light Thunderstorms and Rain,0,2012-10-02 03:03:00
10:19 PM,64.4,64.4,100,29.67,2.5,Calm,Calm,-,0.03,Rain-Thunderstorm,Rain,0,2012-10-02 03:19:00
10:37 PM,66.2,66.2,100,29.67,2.0,Calm,Calm,-,0.08,Rain,Light Rain,0,2012-10-02 03:37:00
10:48 PM,66.2,66.2,100,29.67,10.0,ENE,3.5,-,0.08,,Overcast,70,2012-10-02 03:48:00
11:56 PM,65.8,65.8,100,29.66,2.5,Calm,Calm,-,0.08,Rain,Light Rain,0,2012-10-02 04:56:00